Regional Weather Roundup
Issued by NWS Sioux Falls, SD

Home | Current Version | Previous Version | Text Only | Print | Product List | Glossary Off
Versions: 1 2 3 4 5 6 7 8 9 10 11 12 13 14 15 16 17 18 19 20 21 22 23 24 25 26 27 28 29 30 31 32 33 34 35 36 37 38 39 40 41 42 43 44 45 46 47 48 49 50

000
ASUS43 KFSD 291510
RWRFSD

WEATHER ROUNDUP FOR SE SOUTH DAKOTA/SW MINNESOTA/NW IOWA
NATIONAL WEATHER SERVICE SIOUX FALLS SD
1000 AM CDT SAT AUG 29 2015

NOTE: "FAIR" INDICATES FEW OR NO CLOUDS BELOW 12,000 FEET WITH NO
SIGNIFICANT WEATHER AND OR OBSTRUCTIONS TO VISIBILITY.


SDZ038>040-050-052>070-291600-
SOUTHEAST SOUTH DAKOTA

CITY           SKY/WX    TMP DP  RH WIND       PRES   REMARKS
BROOKINGS      SUNNY     61  57  88 SW5       30.08S
CHAMBERLAIN    PTSUNNY   67  65  94 CALM      30.04S
HURON          MOSUNNY   65  61  87 S8        30.02F
MADISON        FAIR      63  63 100 S7        30.07S
MITCHELL       SUNNY     67  62  84 S8        30.05F
SIOUX FALLS    PTSUNNY   59  57  93 S5        30.07R
WINNER         FAIR      71  60  68 S8        30.05R
YANKTON        CLOUDY    57  57 100 S6        30.07S
$$

MNZ071-072-080-081-089-090-097-098-291600-
SOUTHWEST MINNESOTA

CITY           SKY/WX    TMP DP  RH WIND       PRES   REMARKS
FAIRMONT       CLOUDY    57  54  88 N7        30.08S VSB 1
JACKSON        CLOUDY    59  59 100 CALM      30.09R FOG
LUVERNE        FOG       55  55 100 CALM      30.09R VSB<1/4
MARSHALL       SUNNY     64  55  72 SE5       30.07R
MONTEVIDEO     SUNNY     66  63  88 S3        30.07S
PIPESTONE      MOSUNNY   63  61  94 CALM      30.07R
REDWOOD FALLS  FOG       57  56  96 SE5       30.07S VSB 1/4
TRACY          SUNNY     64  59  83 CALM      30.08R
WINDOM         CLOUDY    57  57 100 CALM      30.09R FOG
WORTHINGTON    CLOUDY    57  54  88 CALM      30.08S VSB 1
$$

IAZ001>003-012>014-020>022-031-032-NEZ013-014-SDZ071-291600-
NORTHWEST IOWA

CITY           SKY/WX    TMP DP  RH WIND       PRES   REMARKS
CHEROKEE       CLOUDY    59  59 100 CALM      30.08S FOG
DENISON        CLOUDY    61  59  94 N6        30.05R
ESTHERVILLE    FOG       57  57 100 N5        30.08R VSB 3/4
LE MARS        CLOUDY    59  57  94 CALM      30.09S
ORANGE CITY    FOG       57  57 100 CALM      30.08S VSB 1
SHELDON        CLOUDY    57  57 100 CALM      30.07S FOG
SIOUX CITY     CLOUDY    62  57  83 CALM      30.08S
SPENCER        CLOUDY    59  57  93 E3        30.08S FOG
STORM LAKE     CLOUDY    59  59 100 N6        30.09R FOG
$$

ABBREVIATIONS USED IN REMARKS
   TC - TEMPERATURE IN CELSIUS
  WCI - WIND CHILL INDEX
   HX - HEAT INDEX
  VSB - VISIBILITY



USA.gov is the U.S. government's official web portal to all federal, state and local government web resources and services.